Hourly Data Report for October 19, 2013

All times are specified in Local Standard Time (LST). Add 1 hour to adjust for Daylight Saving Time where and when it is observed.

PANGNIRTUNG
NUNAVUT

66°08'36.300" N
65°42'40.500" W
22.60 m
2403049
71826
WXP

Download Data

Hourly Data (October 2013)
Hourly Data Report for October 19, 2013
Temp Definition
°C
Dew Point Temp Definition
°C
Rel Hum Definition
%
Wind Dir Definition
10's deg

Wind Spd Definition
km/h
Visibility Definition
km
Stn Press Definition
kPa
Hmdx Definition


Wind Chill Definition


Weather Definition


TIME
00:00 2.9 -0.8 77 6 4   101.28     LegendNANA
01:00 2.8 -0.6 78 9 11   101.29     LegendNANA
02:00 3.1 -0.5 77 7 4   101.31     LegendNANA
03:00 2.3 -0.2 84 9 4   101.31     LegendNANA
04:00 1.9 -0.2 86 8 6   101.30     LegendNANA
05:00 1.9 -0.2 86 7 2   101.30     LegendNANA
06:00 2.3 -0.3 83 8 7   101.30     LegendNANA
07:00 2.3 -0.1 84 8 9   101.32     LegendNANA
08:00 1.9 -0.3 85 9 11   101.33     LegendNANA
09:00 3.4 -0.5 76 8 4   101.32     LegendNANA
10:00 3.6 -0.6 74 9 2   101.33     LegendNANA
11:00 3.4 0.2 80 22 4   101.34     LegendNANA
12:00 2.9 0.1 82 8 6   101.34     LegendNANA
13:00 2.9 0.3 83 5 6   101.36     LegendNANA
14:00 3.1 0.4 82 9 7   101.36     LegendNANA
15:00 2.5 0.1 84 4 6   101.38     LegendNANA
16:00 3.2 0.0 79 9 6   101.39     LegendNANA
17:00 3.0 -0.6 77 8 9   101.39     LegendNANA
18:00 3.7 -0.4 75 12 6   101.39     LegendNANA
19:00 3.2 -0.3 78 9 6   101.40     LegendNANA
20:00 3.8 0.1 77 10 7   101.38     LegendNANA
21:00 3.0 -0.2 79 22 6   101.38     LegendNANA
22:00 3.5 -0.4 76 12 7   101.36     LegendNANA
23:00 2.6 0.3 85 21 4   101.35     LegendNANA

Notes on Data Quality.

Legend

  • E = Estimated
  • M = Missing
  • NA = Not Available
  • ‡ = Partner data that is not subject to review by the National Climate Archives
Date modified: